Terug naar catalogus

OPS 4682 DEB

ActiefPO
NORAD 51766·DEBRIS·🇺🇸 United States

Gelanceerd Apr 3, 1965 vanaf Vandenberg Space Force Base

Loading…

Volgende Passages (komende 24 uur)

TLE

VersSource: Space-Track

Epoch: Sep 13, 2026, 13:59 UTC

1 51766U 65027GX  26256.58319656 -.00000080  00000-0 -31929-3 0  9996
2 51766  90.2535   9.8524 0031471  49.8040 310.5826 12.93294776553660

Volg OPS 4682 DEB in realtime met AllMySat

Download on the App Store